Starlink 31619

operational
NORAD ID: 59531 Int'l Des: 2024-073 Owner: SPXS Country: US Constellation: starlink
LEOCIRCULAR

Starlink 31619について

説明を読み込み中...

リアルタイム位置

3D地球を読み込み中...

次回通過

高度履歴

Altitude vs Time

uPlot chart will show altitude changes over time

軌道要素

1 59531U 24073W 26034.40359947 .00000042 00000-0 11038-4 0 9998
2 59531 42.9980 151.5052 0001175 274.6336 85.4382 15.27576306102051
Epoch: Feb 3, 2026 • Age: 25 hours

現在のステータス

高度 482.7 km
速度 7.63 km/s
衛星直下点 20.28°N, 129.75°W
打ち上げ日 Apr 17, 2024
運用期間 1.7 years
タイプ internet

技術仕様

分類 Payload
質量 730.00 kg
乾燥質量 700.00 kg
総質量 730.00 kg
長さ 0.30 m
直径 4.10 m
スパン 29.00 m
形状 Box + pan
製造者 SPXS
バスタイプ Starlink V2M
フェーズステータス In Orbit
所有者/国 SPXS/US

大規模コンステレーション

Loading constellations...